,,PA_Meas_PMT16A,,PR_Meas_QMR101_102,,RH_Meas_QMH101,,SR_Meas_QMS101,,TA_Meas_QMH101,,GenWind,,GenWind,
time,status,PA,status,PR,status,RH,status,SR,status,TA,status,DirAvg,status,SpdAvg,
2014-10-29, 00:00:04,VALID,918.874,VALID,0,VALID,98.0295,VALID,0,VALID,18.5914,VALID,358,VALID,0,
2014-10-29, 00:01:04,VALID,918.892,VALID,0,VALID,98.0524,VALID,0,VALID,18.572,VALID,358,VALID,0,
2014-10-29, 00:02:04,VALID,918.894,VALID,0,VALID,98.0448,VALID,0,VALID,18.5525,VALID,358,VALID,0,
2014-10-29, 00:03:04,VALID,918.879,VALID,0,VALID,98.0371,VALID,0,VALID,18.5525,VALID,358,VALID,0,
2014-10-29, 00:04:04,VALID,918.876,VALID,0,VALID,98.0371,VALID,0,VALID,18.5525,VALID,358,VALID,0,
2014-10-29, 00:05:04,VALID,918.869,VALID,0,VALID,98.0371,VALID,0,VALID,18.5525,VALID,358,VALID,0,
2014-10-29, 00:06:04,VALID,918.873,VALID,0,VALID,98.0219,VALID,0,VALID,18.6109,VALID,358,VALID,0,
2014-10-29, 00:07:04,VALID,918.857,VALID,0,VALID,98.0143,VALID,0,VALID,18.6708,VALID,358,VALID,0,
2014-10-29, 00:08:04,VALID,918.828,VALID,0,VALID,98.0219,VALID,0,VALID,18.6499,VALID,358,VALID,0,
2014-10-29, 00:09:04,VALID,918.848,VALID,0,VALID,98.0219,VALID,0.107441,VALID,18.6304,VALID,358,VALID,0,
2014-10-29, 00:10:04,VALID,918.849,VALID,0,VALID,98.0295,VALID,0.107441,VALID,18.6304,VALID,358,VALID,0,
2014-10-29, 00:11:04,VALID,918.811,VALID,0,VALID,98.0066,VALID,0,VALID,18.6499,VALID,358,VALID,0,
2014-10-29, 00:12:04,VALID,918.802,VALID,0,VALID,98.0219,VALID,0,VALID,18.6304,VALID,358,VALID,0,
2014-10-29, 00:13:04,VALID,918.778,VALID,0,VALID,98.0143,VALID,0,VALID,18.6109,VALID,358,VALID,0,
2014-10-29, 00:14:04,VALID,918.748,VALID,0,VALID,98.0143,VALID,0,VALID,18.6109,VALID,358,VALID,0,
2014-10-29, 00:15:04,VALID,918.723,VALID,0,VALID,98.0143,VALID,0,VALID,18.6124,VALID,358,VALID,0,
2014-10-29, 00:16:04,VALID,918.694,VALID,0,VALID,98.0219,VALID,0,VALID,18.6109,VALID,358,VALID,0,
2014-10-29, 00:17:04,VALID,918.683,VALID,0,VALID,98.0219,VALID,0,VALID,18.5914,VALID,358,VALID,0,
2014-10-29, 00:18:04,VALID,918.668,VALID,0,VALID,98.0295,VALID,0,VALID,18.5734,VALID,358,VALID,0,
2014-10-29, 00:19:04,VALID,918.691,VALID,0,VALID,98.0371,VALID,0,VALID,18.5539,VALID,358,VALID,0,
2014-10-29, 00:20:04,VALID,918.644,VALID,0,VALID,98.0752,VALID,0,VALID,18.4759,VALID,358,VALID,0,
2014-10-29, 00:21:04,VALID,918.626,VALID,0,VALID,98.0752,VALID,0,VALID,18.4369,VALID,358,VALID,0,
2014-10-29, 00:22:04,VALID,918.63,VALID,0,VALID,98.0829,VALID,0.107441,VALID,18.377,VALID,358,VALID,0,
2014-10-29, 00:23:04,VALID,918.647,VALID,0,VALID,98.0752,VALID,0,VALID,18.3394,VALID,358,VALID,0,
2014-10-29, 00:24:04,VALID,918.636,VALID,0,VALID,98.0905,VALID,0,VALID,18.338,VALID,358,VALID,0,
2014-10-29, 00:25:04,VALID,918.633,VALID,0,VALID,98.0752,VALID,0,VALID,18.3784,INVALID,360,VALID,0,
2014-10-29, 00:26:04,VALID,918.639,VALID,0,VALID,98.0752,VALID,0,VALID,18.3394,VALID,358,VALID,0,
2014-10-29, 00:27:04,VALID,918.637,VALID,0,VALID,98.06,VALID,0,VALID,18.3784,VALID,358,VALID,0,
2014-10-29, 00:28:04,VALID,918.631,VALID,0,VALID,98.06,VALID,0,VALID,18.4174,VALID,358,VALID,0,
2014-10-29, 00:29:04,VALID,918.656,VALID,0,VALID,98.0371,VALID,0,VALID,18.5149,VALID,358,VALID,0,
2014-10-29, 00:30:04,VALID,918.635,VALID,0,VALID,98.0295,VALID,0,VALID,18.5135,VALID,358,VALID,0,
2014-10-29, 00:31:04,VALID,918.652,VALID,0,VALID,98.0371,VALID,0,VALID,18.5539,VALID,358,VALID,0,
2014-10-29, 00:32:04,VALID,918.631,VALID,0,VALID,98.0219,VALID,0.107441,VALID,18.533,VALID,358,VALID,0,
2014-10-29, 00:33:04,VALID,918.635,VALID,0,VALID,98.0371,VALID,0,VALID,18.533,VALID,358,VALID,0,
2014-10-29, 00:34:04,VALID,918.632,VALID,0,VALID,98.0219,VALID,0.107441,VALID,18.5135,VALID,358,VALID,0,
2014-10-29, 00:35:04,VALID,918.625,VALID,0,VALID,98.0524,VALID,0,VALID,18.5135,VALID,358,VALID,0,
2014-10-29, 00:36:04,VALID,918.616,VALID,0,VALID,98.0448,VALID,0,VALID,18.4745,VALID,358,VALID,0,
2014-10-29, 00:37:04,VALID,918.635,VALID,0,VALID,98.0448,VALID,0,VALID,18.4759,VALID,358,VALID,0,
2014-10-29, 00:38:04,VALID,918.662,VALID,0,VALID,98.0371,VALID,0,VALID,18.4954,VALID,358,VALID,0,
2014-10-29, 00:39:04,VALID,918.637,VALID,0,VALID,98.0295,VALID,0,VALID,18.494,VALID,358,VALID,0,
2014-10-29, 00:40:05,VALID,918.639,VALID,0,VALID,98.0066,VALID,0,VALID,18.5135,VALID,358,VALID,0,
2014-10-29, 00:41:05,VALID,918.64,VALID,0,VALID,98.0295,VALID,0.107441,VALID,18.5929,VALID,358,VALID,0,
2014-10-29, 00:42:05,VALID,918.638,VALID,0,VALID,97.999,VALID,0,VALID,18.6124,VALID,358,VALID,0,
2014-10-29, 00:43:05,VALID,918.665,VALID,0,VALID,98.0143,VALID,0,VALID,18.6124,VALID,358,VALID,0,
2014-10-29, 00:44:05,VALID,918.644,VALID,0,VALID,98.0295,VALID,0.107441,VALID,18.5914,VALID,358,VALID,0,
2014-10-29, 00:45:05,VALID,918.656,VALID,0,VALID,98.0219,VALID,0,VALID,18.5914,VALID,358,VALID,0,
2014-10-29, 00:46:05,VALID,918.679,VALID,0,VALID,98.0143,VALID,0,VALID,18.6109,VALID,358,VALID,0,
2014-10-29, 00:47:05,VALID,918.666,VALID,0,VALID,98.0143,VALID,0,VALID,18.6124,VALID,358,VALID,0,
2014-10-29, 00:48:05,VALID,918.658,VALID,0,VALID,98.0143,VALID,0,VALID,18.6124,VALID,358,VALID,0,
2014-10-29, 00:49:05,VALID,918.663,VALID,0,VALID,97.999,VALID,0,VALID,18.5929,VALID,358,VALID,0,
2014-10-29, 00:50:05,VALID,918.667,VALID,0,VALID,98.0219,VALID,0,VALID,18.5914,VALID,358,VALID,0,
2014-10-29, 00:51:05,VALID,918.652,VALID,0,VALID,98.0219,VALID,0,VALID,18.5914,VALID,358,VALID,0,
2014-10-29, 00:52:05,VALID,918.655,VALID,0,VALID,98.0295,VALID,0,VALID,18.5914,VALID,358,VALID,0,
2014-10-29, 00:53:05,VALID,918.619,VALID,0,VALID,98.0143,VALID,0,VALID,18.6124,VALID,358,VALID,0,
2014-10-29, 00:54:05,VALID,918.597,VALID,0,VALID,98.0371,VALID,0,VALID,18.6124,VALID,358,VALID,0,
2014-10-29, 00:55:05,VALID,918.585,VALID,0,VALID,98.0143,VALID,0,VALID,18.6124,VALID,358,VALID,0,
2014-10-29, 00:56:05,VALID,918.564,VALID,0,VALID,98.0371,VALID,0,VALID,18.5929,VALID,358,VALID,0,
2014-10-29, 00:57:05,VALID,918.584,VALID,0,VALID,98.0295,VALID,0,VALID,18.5525,VALID,358,VALID,0,
2014-10-29, 00:58:05,VALID,918.528,VALID,0,VALID,98.0066,VALID,0.107441,VALID,18.6319,VALID,358,VALID,0,
2014-10-29, 00:59:05,VALID,918.488,VALID,0,VALID,98.0143,VALID,0,VALID,18.5914,INVALID,360,VALID,0,
2014-10-29, 01:00:05,VALID,918.465,VALID,0,VALID,98.0219,VALID,0,VALID,18.5525,VALID,358,VALID,0,
2014-10-29, 01:01:05,VALID,918.46,VALID,0,VALID,98.0295,VALID,0.107441,VALID,18.5135,INVALID,360,VALID,0,
2014-10-29, 01:02:05,VALID,918.463,VALID,0,VALID,98.0448,VALID,0,VALID,18.494,INVALID,360,VALID,0,
2014-10-29, 01:03:05,VALID,918.426,VALID,0,VALID,98.0371,VALID,0,VALID,18.4745,VALID,358,VALID,0,
2014-10-29, 01:04:05,VALID,918.431,VALID,0,VALID,98.0448,VALID,0,VALID,18.455,VALID,358,VALID,0,
2014-10-29, 01:05:05,VALID,918.466,VALID,0,VALID,98.06,VALID,0,VALID,18.416,VALID,358,VALID,0,
2014-10-29, 01:06:05,VALID,918.445,VALID,0,VALID,98.0524,VALID,0,VALID,18.3979,VALID,358,VALID,0,
2014-10-29, 01:07:05,VALID,918.447,VALID,0,VALID,98.0448,VALID,0,VALID,18.416,VALID,358,VALID,0,
2014-10-29, 01:08:05,VALID,918.448,VALID,0,VALID,98.06,VALID,0,VALID,18.4355,VALID,358,VALID,0,
2014-10-29, 01:09:05,VALID,918.442,VALID,0,VALID,98.06,VALID,0,VALID,18.4355,VALID,358,VALID,0,
2014-10-29, 01:10:05,VALID,918.452,VALID,0,VALID,98.0371,VALID,0,VALID,18.4954,VALID,358,VALID,0,
2014-10-29, 01:11:05,VALID,918.447,VALID,0,VALID,98.0448,VALID,0,VALID,18.494,VALID,358,VALID,0,
2014-10-29, 01:12:05,VALID,918.431,VALID,0,VALID,98.0371,VALID,0,VALID,18.5539,VALID,358,VALID,0,
2014-10-29, 01:13:05,VALID,918.438,VALID,0,VALID,97.999,VALID,0,VALID,18.5929,VALID,358,VALID,0,
2014-10-29, 01:14:05,VALID,918.414,VALID,0,VALID,98.0143,VALID,0,VALID,18.6124,VALID,358,VALID,0,
2014-10-29, 01:15:05,VALID,918.396,VALID,0,VALID,98.0295,VALID,0,VALID,18.5914,VALID,358,VALID,0,
2014-10-29, 01:16:05,VALID,918.395,VALID,0,VALID,98.0295,VALID,0,VALID,18.6124,VALID,358,VALID,0,
2014-10-29, 01:17:05,VALID,918.39,VALID,0,VALID,98.0219,VALID,0,VALID,18.6109,VALID,358,VALID,0,
2014-10-29, 01:18:05,VALID,918.394,VALID,0,VALID,98.0295,VALID,0,VALID,18.6109,VALID,358,VALID,0,
2014-10-29, 01:19:05,VALID,918.385,VALID,0,VALID,98.0295,VALID,0,VALID,18.6124,VALID,358,VALID,0,
2014-10-29, 01:20:05,VALID,918.357,VALID,0,VALID,98.0219,VALID,0,VALID,18.5929,VALID,358,VALID,0,
2014-10-29, 01:21:05,VALID,918.357,VALID,0,VALID,98.0295,VALID,0,VALID,18.5929,VALID,358,VALID,0,
2014-10-29, 01:22:05,VALID,918.354,VALID,0,VALID,98.0143,VALID,0,VALID,18.5525,VALID,358,VALID,0,
2014-10-29, 01:23:05,VALID,918.337,VALID,0,VALID,98.0371,VALID,0,VALID,18.5525,VALID,358,VALID,0,
2014-10-29, 01:24:05,VALID,918.344,VALID,0,VALID,98.0448,VALID,0,VALID,18.5734,VALID,358,VALID,0,
2014-10-29, 01:25:05,VALID,918.325,VALID,0,VALID,98.0295,VALID,0,VALID,18.5539,VALID,358,VALID,0,
2014-10-29, 01:26:05,VALID,918.306,VALID,0,VALID,98.0524,VALID,0,VALID,18.5149,VALID,358,VALID,0,
2014-10-29, 01:27:05,VALID,918.284,VALID,0,VALID,98.0448,VALID,0,VALID,18.5149,VALID,358,VALID,0,
2014-10-29, 01:28:05,VALID,918.313,VALID,0,VALID,98.06,VALID,0,VALID,18.5149,VALID,358,VALID,0,
2014-10-29, 01:29:05,VALID,918.285,VALID,0,VALID,98.0448,VALID,0,VALID,18.5149,VALID,358,VALID,0,
2014-10-29, 01:30:05,VALID,918.227,VALID,0,VALID,98.06,VALID,0,VALID,18.455,VALID,358,VALID,0,
2014-10-29, 01:31:05,VALID,918.237,VALID,0,VALID,98.0752,VALID,0,VALID,18.377,VALID,358,VALID,0,
2014-10-29, 01:32:05,VALID,918.224,VALID,0,VALID,98.0676,VALID,0,VALID,18.3575,VALID,358,VALID,0,
2014-10-29, 01:33:05,VALID,918.204,VALID,0,VALID,98.06,VALID,0,VALID,18.3979,VALID,358,VALID,0,
2014-10-29, 01:34:05,VALID,918.193,VALID,0,VALID,98.0676,VALID,0,VALID,18.3784,INVALID,360,VALID,0,
2014-10-29, 01:35:05,VALID,918.181,VALID,0,VALID,98.0524,VALID,0,VALID,18.3784,VALID,358,VALID,0,
2014-10-29, 01:36:05,VALID,918.19,VALID,0,VALID,98.0448,VALID,0,VALID,18.3784,VALID,358,VALID,0,
2014-10-29, 01:37:05,VALID,918.224,VALID,0,VALID,98.0676,VALID,0,VALID,18.377,VALID,358,VALID,0,
2014-10-29, 01:38:05,VALID,918.181,VALID,0,VALID,98.0676,VALID,0,VALID,18.377,VALID,358,VALID,0,
2014-10-29, 01:39:05,VALID,918.201,VALID,0,VALID,98.0524,VALID,0,VALID,18.3784,VALID,358,VALID,0,
2014-10-29, 01:40:05,VALID,918.179,VALID,0,VALID,98.0448,VALID,0.107441,VALID,18.3979,VALID,358,VALID,0,
2014-10-29, 01:41:05,VALID,918.171,VALID,0,VALID,98.0752,VALID,0,VALID,18.377,VALID,358,VALID,0,
2014-10-29, 01:42:05,VALID,918.196,VALID,0,VALID,98.0676,VALID,0,VALID,18.377,VALID,358,VALID,0,
2014-10-29, 01:43:05,VALID,918.188,VALID,0,VALID,98.0524,VALID,0,VALID,18.3575,VALID,358,VALID,0,
2014-10-29, 01:44:05,VALID,918.155,VALID,0,VALID,98.0829,VALID,0,VALID,18.377,VALID,358,VALID,0,
2014-10-29, 01:45:05,VALID,918.15,VALID,0,VALID,98.0295,VALID,0,VALID,18.4369,INVALID,360,VALID,0,
2014-10-29, 01:46:05,VALID,918.114,VALID,0,VALID,98.0371,VALID,0,VALID,18.455,VALID,358,VALID,0,
2014-10-29, 01:47:05,VALID,918.101,VALID,0,VALID,98.0219,VALID,0,VALID,18.494,VALID,358,VALID,0,
2014-10-29, 01:48:05,VALID,918.076,VALID,0,VALID,98.0524,VALID,0,VALID,18.5135,VALID,358,VALID,0,
2014-10-29, 01:49:05,VALID,918.075,VALID,0,VALID,98.0371,VALID,0,VALID,18.5135,VALID,358,VALID,0,
2014-10-29, 01:50:05,VALID,918.042,VALID,0,VALID,98.0371,VALID,0,VALID,18.5539,VALID,358,VALID,0,
2014-10-29, 01:51:05,VALID,918.026,VALID,0,VALID,98.0143,VALID,0.107441,VALID,18.5525,VALID,358,VALID,0,
2014-10-29, 01:52:05,VALID,918.001,VALID,0,VALID,98.0295,VALID,0,VALID,18.5525,VALID,358,VALID,0,
2014-10-29, 01:53:05,VALID,918.007,VALID,0,VALID,98.0295,VALID,0,VALID,18.5525,VALID,358,VALID,0,
2014-10-29, 01:54:05,VALID,917.992,VALID,0,VALID,98.0295,VALID,0,VALID,18.5734,VALID,48,VALID,0.078125,
2014-10-29, 01:55:05,VALID,917.998,VALID,0,VALID,98.0295,VALID,0,VALID,18.533,VALID,48,VALID,0,
2014-10-29, 01:56:05,VALID,917.97,VALID,0,VALID,98.06,VALID,0,VALID,18.533,VALID,48,VALID,0,
2014-10-29, 01:57:05,VALID,917.96,VALID,0,VALID,98.0448,VALID,0,VALID,18.5539,VALID,48,VALID,0,
2014-10-29, 01:58:05,VALID,917.982,VALID,0,VALID,98.0219,VALID,0,VALID,18.5734,VALID,48,VALID,0,
2014-10-29, 01:59:05,VALID,917.984,VALID,0,VALID,98.0143,VALID,0,VALID,18.5929,VALID,48,VALID,0,
2014-10-29, 02:00:05,VALID,917.999,VALID,0,VALID,97.999,VALID,0,VALID,18.5734,VALID,48,VALID,0,
2014-10-29, 02:01:05,VALID,917.973,VALID,0,VALID,98.0371,VALID,0,VALID,18.572,VALID,48,VALID,0.141406,
2014-10-29, 02:02:05,VALID,917.997,VALID,0,VALID,98.0371,VALID,0,VALID,18.572,VALID,48,VALID,0,
2014-10-29, 02:03:05,VALID,917.974,VALID,0,VALID,98.0448,VALID,0,VALID,18.5929,VALID,48,VALID,0,
2014-10-29, 02:04:05,VALID,917.943,VALID,0,VALID,98.0066,VALID,0,VALID,18.5914,VALID,48,VALID,0,
2014-10-29, 02:05:05,VALID,917.957,VALID,0,VALID,98.0066,VALID,0,VALID,18.6109,VALID,48,VALID,0,
2014-10-29, 02:06:05,VALID,917.936,VALID,0,VALID,97.999,VALID,0,VALID,18.6304,VALID,48,VALID,0,
2014-10-29, 02:07:05,VALID,917.931,VALID,0,VALID,97.9838,VALID,0,VALID,18.6499,VALID,48,VALID,0,
2014-10-29, 02:08:05,VALID,917.918,VALID,0,VALID,98.0219,VALID,0,VALID,18.6694,VALID,48,VALID,0,
2014-10-29, 02:09:05,VALID,917.924,VALID,0,VALID,98.0143,VALID,0,VALID,18.6903,VALID,48,VALID,0,
2014-10-29, 02:10:05,VALID,917.909,VALID,0,VALID,98.0066,VALID,0.107441,VALID,18.6694,VALID,48,VALID,0,
2014-10-29, 02:11:05,VALID,917.931,VALID,0,VALID,98.0066,VALID,0.107441,VALID,18.6889,VALID,48,VALID,0,
2014-10-29, 02:12:05,VALID,917.905,VALID,0,VALID,97.999,VALID,0.107441,VALID,18.7084,VALID,48,VALID,0,
2014-10-29, 02:13:05,VALID,917.882,VALID,0,VALID,97.999,VALID,0,VALID,18.7098,VALID,48,VALID,0,
2014-10-29, 02:14:05,VALID,917.881,VALID,0,VALID,98.0295,VALID,0,VALID,18.6889,VALID,48,VALID,0,
2014-10-29, 02:15:05,VALID,917.879,VALID,0,VALID,98.0143,VALID,0,VALID,18.6889,VALID,48,VALID,0,
2014-10-29, 02:16:05,VALID,917.883,VALID,0,VALID,97.999,VALID,0,VALID,18.6694,VALID,48,VALID,0,
2014-10-29, 02:17:05,VALID,917.852,VALID,0,VALID,98.0143,VALID,0,VALID,18.6499,VALID,48,VALID,0,
2014-10-29, 02:18:05,VALID,917.878,VALID,0,VALID,98.0066,VALID,0,VALID,18.6694,VALID,48,VALID,0,
2014-10-29, 02:19:05,VALID,917.84,VALID,0,VALID,98.0066,VALID,0,VALID,18.6499,VALID,48,VALID,0,
2014-10-29, 02:20:05,VALID,917.812,VALID,0,VALID,97.999,VALID,0,VALID,18.6499,VALID,48,VALID,0,
2014-10-29, 02:21:05,VALID,917.839,VALID,0,VALID,98.0066,VALID,0,VALID,18.6499,VALID,48,VALID,0,
2014-10-29, 02:22:05,VALID,917.83,VALID,0,VALID,98.0066,VALID,0,VALID,18.6694,VALID,48,VALID,0,
2014-10-29, 02:23:05,VALID,917.815,VALID,0,VALID,98.0066,VALID,0,VALID,18.6903,VALID,48,VALID,0,
2014-10-29, 02:24:05,VALID,917.806,VALID,0,VALID,98.0066,VALID,0.107441,VALID,18.6694,VALID,48,VALID,0,
2014-10-29, 02:25:05,VALID,917.809,VALID,0,VALID,98.0066,VALID,0,VALID,18.6903,VALID,48,VALID,0,
2014-10-29, 02:26:05,VALID,917.776,VALID,0,VALID,97.9914,VALID,0,VALID,18.7098,VALID,48,VALID,0.291406,
2014-10-29, 02:27:05,VALID,917.807,VALID,0,VALID,98.0143,VALID,0.107441,VALID,18.6889,VALID,48,VALID,0.0296875,
2014-10-29, 02:28:05,VALID,917.831,VALID,0,VALID,98.0066,VALID,0,VALID,18.6889,VALID,48,VALID,0,
2014-10-29, 02:29:05,VALID,917.828,VALID,0,VALID,98.0295,VALID,0,VALID,18.6889,VALID,48,VALID,0,
2014-10-29, 02:30:05,VALID,917.817,VALID,0,VALID,98.0143,VALID,0,VALID,18.6694,VALID,48,VALID,0.0886719,
2014-10-29, 02:31:05,VALID,917.804,VALID,0,VALID,98.0066,VALID,0,VALID,18.6499,VALID,48,VALID,0.365625,
2014-10-29, 02:32:05,VALID,917.784,VALID,0,VALID,98.0066,VALID,0,VALID,18.6513,VALID,48,VALID,0,
2014-10-29, 02:33:05,VALID,917.752,VALID,0,VALID,98.0371,VALID,0,VALID,18.6304,VALID,48,VALID,0.127344,
2014-10-29, 02:34:05,VALID,917.74,VALID,0,VALID,98.0295,VALID,0.107441,VALID,18.6319,VALID,48,VALID,0,
2014-10-29, 02:35:05,VALID,917.67,VALID,0,VALID,98.0219,VALID,0,VALID,18.6319,VALID,48,VALID,0,
2014-10-29, 02:36:05,VALID,917.646,VALID,0,VALID,98.0219,VALID,0,VALID,18.6124,VALID,48,VALID,0,
2014-10-29, 02:37:05,VALID,917.644,VALID,0,VALID,98.0219,VALID,0,VALID,18.5929,VALID,48,VALID,0.483203,
2014-10-29, 02:38:05,VALID,917.619,VALID,0,VALID,98.0371,VALID,0,VALID,18.533,VALID,105,VALID,0.949219,
2014-10-29, 02:39:05,VALID,917.586,VALID,0,VALID,98.0448,VALID,0,VALID,18.5135,VALID,111,VALID,0.712109,
2014-10-29, 02:40:05,VALID,917.585,VALID,0,VALID,98.0371,VALID,0,VALID,18.494,VALID,120,VALID,0.896484,
2014-10-29, 02:41:05,VALID,917.57,VALID,0,VALID,98.0676,VALID,0.107441,VALID,18.4745,VALID,117,VALID,0.158594,
2014-10-29, 02:42:05,VALID,917.59,VALID,0,VALID,98.0524,VALID,0,VALID,18.4759,VALID,122,VALID,0.501562,
2014-10-29, 02:43:05,VALID,917.578,VALID,0,VALID,98.0676,VALID,0,VALID,18.4355,VALID,102,VALID,0.0640625,
2014-10-29, 02:44:05,VALID,917.569,VALID,0,VALID,98.06,VALID,0,VALID,18.4564,VALID,109,VALID,0.0195313,
2014-10-29, 02:45:05,VALID,917.562,VALID,0,VALID,98.0524,VALID,0,VALID,18.4355,VALID,109,VALID,0,
2014-10-29, 02:46:05,VALID,917.562,VALID,0,VALID,98.0524,VALID,0,VALID,18.4564,VALID,113,VALID,0.158594,
2014-10-29, 02:47:05,VALID,917.57,VALID,0,VALID,98.0448,VALID,0,VALID,18.4759,VALID,132,VALID,0,
2014-10-29, 02:48:05,VALID,917.557,VALID,0,VALID,98.0295,VALID,0,VALID,18.4759,VALID,132,VALID,0.121484,
2014-10-29, 02:49:05,VALID,917.574,VALID,0,VALID,98.0448,VALID,0,VALID,18.455,VALID,132,VALID,0.100781,
2014-10-29, 02:50:05,VALID,917.519,VALID,0,VALID,98.06,VALID,0,VALID,18.4174,VALID,132,VALID,0,
2014-10-29, 02:51:05,VALID,917.58,VALID,0,VALID,98.06,VALID,0,VALID,18.416,VALID,132,VALID,0,
2014-10-29, 02:52:05,VALID,917.551,VALID,0,VALID,98.0524,VALID,0,VALID,18.416,VALID,132,VALID,0,
2014-10-29, 02:53:05,VALID,917.533,VALID,0,VALID,98.06,VALID,0,VALID,18.4369,VALID,132,VALID,0,
2014-10-29, 02:54:05,VALID,917.521,VALID,0,VALID,98.0676,VALID,0,VALID,18.416,VALID,133,VALID,0.241406,
2014-10-29, 02:55:05,VALID,917.493,VALID,0,VALID,98.06,VALID,0,VALID,18.4369,VALID,132,VALID,0,
2014-10-29, 02:56:05,VALID,917.489,VALID,0,VALID,98.0524,VALID,0,VALID,18.416,VALID,132,VALID,0,
2014-10-29, 02:57:05,VALID,917.466,VALID,0,VALID,98.0448,VALID,0,VALID,18.4355,VALID,132,VALID,0,
2014-10-29, 02:58:05,VALID,917.452,VALID,0,VALID,98.0676,VALID,0,VALID,18.4369,VALID,128,VALID,0,
2014-10-29, 02:59:05,VALID,917.464,VALID,0,VALID,98.06,VALID,0,VALID,18.416,VALID,129,VALID,0.264844,
2014-10-29, 03:00:05,VALID,917.469,VALID,0,VALID,98.0371,VALID,0,VALID,18.3965,VALID,129,VALID,0,
2014-10-29, 03:01:05,VALID,917.497,VALID,0,VALID,98.0524,VALID,0,VALID,18.416,VALID,93,VALID,0.101172,
2014-10-29, 03:02:05,VALID,917.481,VALID,0,VALID,98.0752,VALID,0,VALID,18.3965,VALID,125,VALID,0.901953,
2014-10-29, 03:03:05,VALID,917.507,VALID,0,VALID,98.06,VALID,0,VALID,18.377,VALID,128,VALID,0.722266,
2014-10-29, 03:04:05,VALID,917.508,VALID,0,VALID,98.0676,VALID,0,VALID,18.377,VALID,131,VALID,0.0078125,
2014-10-29, 03:05:05,VALID,917.518,VALID,0,VALID,98.0676,VALID,0,VALID,18.3575,VALID,128,VALID,0.547266,
2014-10-29, 03:06:05,VALID,917.485,VALID,0,VALID,98.06,VALID,0,VALID,18.3575,VALID,102,VALID,0.228516,
2014-10-29, 03:07:05,VALID,917.469,VALID,0,VALID,98.0752,VALID,0,VALID,18.3784,VALID,114,VALID,0.659375,
2014-10-29, 03:08:05,VALID,917.455,VALID,0,VALID,98.0752,VALID,0,VALID,18.3185,VALID,99,VALID,1.0875,
2014-10-29, 03:09:05,VALID,917.429,VALID,0,VALID,98.0676,VALID,0,VALID,18.3394,VALID,106,VALID,1.07969,
2014-10-29, 03:10:05,VALID,917.412,VALID,0,VALID,98.0752,VALID,0,VALID,18.299,VALID,110,VALID,0.476172,
2014-10-29, 03:11:05,VALID,917.409,VALID,0,VALID,98.0905,VALID,0,VALID,18.2601,VALID,102,VALID,0.122266,
2014-10-29, 03:12:05,VALID,917.409,VALID,0,VALID,98.0829,VALID,0.107441,VALID,18.2615,VALID,90,VALID,0.0121094,
2014-10-29, 03:13:05,VALID,917.419,VALID,0,VALID,98.0829,VALID,0,VALID,18.2406,VALID,102,VALID,0.18125,
2014-10-29, 03:14:05,VALID,917.382,VALID,0,VALID,98.0981,VALID,0,VALID,18.242,VALID,102,VALID,0,
2014-10-29, 03:15:05,VALID,917.393,VALID,0,VALID,98.1057,VALID,0,VALID,18.242,VALID,115,VALID,1.13086,
2014-10-29, 03:16:05,VALID,917.359,VALID,0,VALID,98.0981,VALID,0.107441,VALID,18.2211,VALID,121,VALID,0.470703,
2014-10-29, 03:17:05,VALID,917.347,VALID,0,VALID,98.0752,VALID,0,VALID,18.2225,VALID,106,VALID,0.700391,
2014-10-29, 03:18:05,VALID,917.333,VALID,0,VALID,98.0981,VALID,0,VALID,18.2225,VALID,128,VALID,0.224609,
2014-10-29, 03:19:05,VALID,917.316,VALID,0,VALID,98.0981,VALID,0,VALID,18.2016,VALID,132,VALID,0.684375,
2014-10-29, 03:20:05,VALID,917.329,VALID,0,VALID,98.0829,VALID,0,VALID,18.2225,VALID,127,VALID,0.414453,
2014-10-29, 03:21:04,VALID,917.348,VALID,0,VALID,98.0676,VALID,0,VALID,18.2211,VALID,142,VALID,0.956641,
2014-10-29, 03:22:04,VALID,917.341,VALID,0,VALID,98.0829,VALID,0,VALID,18.242,VALID,146,VALID,1.18906,
2014-10-29, 03:23:04,VALID,917.332,VALID,0,VALID,98.0676,VALID,0,VALID,18.242,VALID,129,VALID,0.342187,
2014-10-29, 03:24:04,VALID,917.372,VALID,0,VALID,98.0676,VALID,0,VALID,18.2615,VALID,149,VALID,0.00820312,
2014-10-29, 03:25:04,VALID,917.34,VALID,0,VALID,98.0752,VALID,0,VALID,18.2406,VALID,148,VALID,0.469922,
2014-10-29, 03:26:04,VALID,917.347,VALID,0,VALID,98.0676,VALID,0,VALID,18.2809,VALID,162,VALID,0.451562,
2014-10-29, 03:27:04,VALID,917.349,VALID,0,VALID,98.0676,VALID,0,VALID,18.2601,VALID,168,VALID,0.573047,
2014-10-29, 03:28:04,VALID,917.335,VALID,0,VALID,98.0752,VALID,0,VALID,18.3004,VALID,150,VALID,0,
2014-10-29, 03:29:04,VALID,917.342,VALID,0.2,VALID,98.0752,VALID,0,VALID,18.3004,VALID,170,VALID,0.280469,
2014-10-29, 03:30:04,VALID,917.353,VALID,0,VALID,98.0829,VALID,0,VALID,18.2809,VALID,170,VALID,0,
2014-10-29, 03:31:04,VALID,917.368,VALID,0,VALID,98.0676,VALID,0,VALID,18.2796,VALID,170,VALID,0.589844,
2014-10-29, 03:32:04,VALID,917.384,VALID,0,VALID,98.0676,VALID,0,VALID,18.3004,VALID,168,VALID,0.599219,
2014-10-29, 03:33:04,VALID,917.357,VALID,0,VALID,98.0676,VALID,0,VALID,18.3004,VALID,167,VALID,0.657031,
2014-10-29, 03:34:04,VALID,917.35,VALID,0,VALID,98.0676,VALID,0,VALID,18.2796,VALID,146,VALID,0.630469,
2014-10-29, 03:35:04,VALID,917.299,VALID,0,VALID,98.0524,VALID,0,VALID,18.2809,VALID,137,VALID,0.404297,
2014-10-29, 03:36:04,VALID,917.339,VALID,0,VALID,98.0829,VALID,0,VALID,18.2615,VALID,139,VALID,0.731641,
2014-10-29, 03:37:04,VALID,917.301,VALID,0,VALID,98.0676,VALID,0,VALID,18.242,VALID,132,VALID,0.603516,
2014-10-29, 03:38:04,VALID,917.297,VALID,0,VALID,98.0829,VALID,0,VALID,18.203,VALID,138,VALID,0.978516,
2014-10-29, 03:39:04,VALID,917.272,VALID,0,VALID,98.0981,VALID,0,VALID,18.1821,VALID,137,VALID,0.612891,
2014-10-29, 03:40:04,VALID,917.267,VALID,0,VALID,98.0905,VALID,0,VALID,18.1835,VALID,131,VALID,0.502734,
2014-10-29, 03:41:04,VALID,917.262,VALID,0,VALID,98.1134,VALID,0,VALID,18.1445,VALID,134,VALID,0.269141,
2014-10-29, 03:42:04,VALID,917.251,VALID,0,VALID,98.121,VALID,0,VALID,18.125,VALID,124,VALID,0.260547,
2014-10-29, 03:43:04,VALID,917.264,VALID,0,VALID,98.121,VALID,0,VALID,18.1041,VALID,124,VALID,0.848047,
2014-10-29, 03:44:04,VALID,917.274,VALID,0,VALID,98.1134,VALID,0,VALID,18.0846,VALID,115,VALID,0.801172,
2014-10-29, 03:45:04,VALID,917.279,VALID,0,VALID,98.1057,VALID,0,VALID,18.0651,VALID,112,VALID,0.571484,
2014-10-29, 03:46:04,VALID,917.285,VALID,0,VALID,98.1057,VALID,0,VALID,18.0457,VALID,111,VALID,0,
2014-10-29, 03:47:04,VALID,917.282,VALID,0,VALID,98.1286,VALID,0,VALID,18.0262,VALID,111,VALID,0,
2014-10-29, 03:48:04,VALID,917.296,VALID,0,VALID,98.1362,VALID,0,VALID,18.0067,VALID,111,VALID,0,
2014-10-29, 03:49:04,VALID,917.277,VALID,0,VALID,98.1591,VALID,0,VALID,18.008,VALID,111,VALID,0,
2014-10-29, 03:50:04,VALID,917.27,VALID,0,VALID,98.1515,VALID,0,VALID,17.9482,VALID,111,VALID,0,
2014-10-29, 03:51:04,VALID,917.269,VALID,0,VALID,98.1515,VALID,0,VALID,17.9106,VALID,111,VALID,0,
2014-10-29, 03:52:04,VALID,917.274,VALID,0,VALID,98.1439,VALID,0,VALID,17.9106,VALID,111,VALID,0,
2014-10-29, 03:53:04,VALID,917.257,VALID,0,VALID,98.1591,VALID,0,VALID,17.8911,VALID,111,VALID,0,
2014-10-29, 03:54:04,VALID,917.263,VALID,0,VALID,98.1743,VALID,0,VALID,17.8508,VALID,112,VALID,0,
2014-10-29, 03:55:04,VALID,917.279,VALID,0,VALID,98.1591,VALID,0,VALID,17.8716,VALID,111,VALID,0,